Location: ??????
(38.0677°N, 22.9870°E)
Time: 14:09:47
(UTC+00:00)

CZ-2C R/B - Pass Details

Date: 11 August 2024
Orbit: 666 x 777 km, 98.4° (Epoch: 09 September)

Event Time Altitude Azimuth Distance (km) Brightness Sun altitude
Rises 02:55:47 0° 1° (N) 3,264 6.2 -8.8°
Reaches altitude 10° 02:58:21 10° 351° (N) 2,336 5.3 -8.3°
Maximum altitude 03:02:47 30° 292° (WNW) 1,370 3.5 -7.5°
Drops below altitude 10° 03:07:11 10° 232° (SW) 2,310 4.3 -6.8°
Enters shadow 03:08:00 - 228° (SW) 2,593 4.6 -6.6°
